This is the latest recevied weather packets stored in our database for station/object S59DKS-10. If no packets are shown the sender has not sent any weather packets the latest 10 day(s).
| Time | Temp. | Humidity | Pressure | Rain* | Wind** | Luminosity | Snow |
|---|---|---|---|---|---|---|---|
| 1777610991 | 12.78° C | 28% | 1027.8 hPa | - | - | - | - |
| 1777610092 | 11.67° C | 29% | 1027.7 hPa | - | - | - | - |
| 1777609193 | 10° C | 33% | 1027.5 hPa | - | - | - | - |
| 1777608294 | 6.67° C | 38% | 1027.5 hPa | - | - | - | - |
| 1777607396 | 6.67° C | 38% | 1027.4 hPa | - | - | - | - |
| 1777606498 | 6.67° C | 37% | 1027.4 hPa | - | - | - | - |
| 1777605599 | 6.67° C | 37% | 1027.4 hPa | - | - | - | - |
| 1777604701 | 6.67° C | 37% | 1027.5 hPa | - | - | - | - |
| 1777603802 | 7.22° C | 36% | 1027.5 hPa | - | - | - | - |
| 1777602903 | 7.22° C | 36% | 1027.6 hPa | - | - | - | - |
| 1777602051 | 7.22° C | 37% | 1027.6 hPa | - | - | - | - |
| 1777602004 | 7.22° C | 37% | 1027.6 hPa | - | - | - | - |
| 1777601105 | 7.22° C | 36% | 1027.6 hPa | - | - | - | - |
| 1777600244 | 7.22° C | 37% | 1027.6 hPa | - | - | - | - |
| 1777600206 | 7.22° C | 37% | 1027.6 hPa | - | - | - | - |
| 1777599302 | 7.22° C | 36% | 1027.7 hPa | - | - | - | - |
| 1777598404 | 7.22° C | 36% | 1027.8 hPa | - | - | - | - |
| 1777597506 | 7.78° C | 35% | 1027.6 hPa | - | - | - | - |
| 1777596608 | 7.78° C | 35% | 1027.6 hPa | - | - | - | - |
| 1777595709 | 7.78° C | 35% | 1027.7 hPa | - | - | - | - |
| 1777594811 | 7.78° C | 35% | 1027.7 hPa | - | - | - | - |
| 1777593981 | 7.78° C | 36% | 1027.6 hPa | - | - | - | - |
| 1777593911 | 7.78° C | 36% | 1027.6 hPa | - | - | - | - |
| 1777593012 | 7.78° C | 36% | 1027.7 hPa | - | - | - | - |
| 1777592113 | 7.78° C | 36% | 1027.8 hPa | - | - | - | - |
* Rain since midnight (hover to see other rain measurements)
** Current wind speed in m/s (hover to see current wind gust speed)